Time,TemperatureF,DewpointF,PressureIn,WindDirection,WindDirectionDegrees,WindSpeedMPH,WindSpeedGustMPH,Humidity,HourlyPrecipIn,Conditions,Clouds,dailyrainin,SolarRadiationWatts/m^2,SoftwareType,DateUTC
2013-02-05 00:11:00,33.0,30.0,-100.00,North,6,6.0,7.0,90,0.00,,,0.00,0.000000,,2013-02-05 08:11:00,
2013-02-05 00:21:00,33.0,30.0,-100.00,North,6,6.0,7.0,90,0.00,,,0.00,0.000000,,2013-02-05 08:21:00,
2013-02-05 00:31:00,33.0,30.0,-100.00,North,6,6.0,7.0,90,0.00,,,0.00,0.000000,,2013-02-05 08:31:00,
2013-02-05 00:41:00,33.0,30.0,-100.00,North,6,6.0,7.0,90,0.00,,,0.00,0.000000,,2013-02-05 08:41:00,
2013-02-05 01:11:00,32.0,30.0,-100.00,NE,56,9.0,12.0,94,0.00,,,0.00,0.000000,,2013-02-05 09:11:00,
2013-02-05 01:21:00,32.0,30.0,-100.00,NE,56,9.0,12.0,94,0.00,,,0.00,0.000000,,2013-02-05 09:21:00,
2013-02-05 01:31:00,32.0,30.0,-100.00,NE,56,9.0,12.0,94,0.00,,,0.00,0.000000,,2013-02-05 09:31:00,
2013-02-05 01:42:00,32.0,30.0,-100.00,NE,56,9.0,12.0,94,0.00,,,0.00,0.000000,,2013-02-05 09:42:00,
2013-02-05 02:11:00,31.0,30.0,-100.00,ESE,115,5.0,11.0,96,0.00,,,0.00,0.000000,,2013-02-05 10:11:00,
2013-02-05 02:21:00,31.0,30.0,-100.00,ESE,115,5.0,11.0,96,0.00,,,0.00,0.000000,,2013-02-05 10:21:00,
2013-02-05 02:31:00,31.0,30.0,-100.00,ESE,115,5.0,11.0,96,0.00,,,0.00,0.000000,,2013-02-05 10:31:00,
2013-02-05 02:42:00,31.0,30.0,-100.00,ESE,115,5.0,11.0,96,0.00,,,0.00,0.000000,,2013-02-05 10:42:00,
2013-02-05 03:11:00,31.0,30.0,-100.00,NE,56,1.0,7.0,97,0.00,,,-99.99,0.000000,,2013-02-05 11:11:00,
2013-02-05 03:22:00,31.0,30.0,-100.00,NE,56,1.0,7.0,97,0.00,,,-99.99,0.000000,,2013-02-05 11:22:00,
2013-02-05 03:32:00,31.0,30.0,-100.00,NE,56,1.0,7.0,97,0.00,,,-99.99,0.000000,,2013-02-05 11:32:00,
2013-02-05 03:41:00,31.0,30.0,-100.00,NE,56,1.0,7.0,97,0.00,,,-99.99,0.000000,,2013-02-05 11:41:00,
2013-02-05 04:12:00,30.0,29.0,-100.00,NNE,12,5.0,6.0,96,0.00,,,0.00,0.000000,,2013-02-05 12:12:00,
2013-02-05 04:21:00,30.0,29.0,-100.00,NNE,12,5.0,6.0,96,0.00,,,0.00,0.000000,,2013-02-05 12:21:00,
2013-02-05 04:32:00,30.0,29.0,-100.00,NNE,12,5.0,6.0,96,0.00,,,0.00,0.000000,,2013-02-05 12:32:00,
2013-02-05 04:41:00,30.0,29.0,-100.00,NNE,12,5.0,6.0,96,0.00,,,0.00,0.000000,,2013-02-05 12:41:00,
2013-02-05 05:12:00,31.0,30.0,-100.00,North,2,4.0,7.0,96,0.00,,,0.00,0.000000,,2013-02-05 13:12:00,
2013-02-05 05:21:00,31.0,30.0,-100.00,North,2,4.0,7.0,96,0.00,,,0.00,0.000000,,2013-02-05 13:21:00,
2013-02-05 05:31:00,31.0,30.0,-100.00,North,2,4.0,7.0,96,0.00,,,0.00,0.000000,,2013-02-05 13:31:00,
2013-02-05 05:41:00,31.0,30.0,-100.00,North,2,4.0,7.0,96,0.00,,,0.00,0.000000,,2013-02-05 13:41:00,
2013-02-05 06:12:00,32.0,31.0,-100.00,NNE,29,0.0,5.0,95,0.00,,,0.00,0.000000,,2013-02-05 14:12:00,
2013-02-05 06:21:00,32.0,31.0,-100.00,NNE,29,0.0,5.0,95,0.00,,,0.00,0.000000,,2013-02-05 14:21:00,
2013-02-05 06:31:00,32.0,31.0,-100.00,NNE,29,0.0,5.0,95,0.00,,,0.00,0.000000,,2013-02-05 14:31:00,
2013-02-05 06:41:00,32.0,31.0,-100.00,NNE,29,0.0,5.0,95,0.00,,,0.00,0.000000,,2013-02-05 14:41:00,
2013-02-05 07:11:00,32.0,31.0,-100.00,ESE,114,0.0,4.0,95,0.00,,,-99.99,0.000000,,2013-02-05 15:11:00,
2013-02-05 07:21:00,32.0,31.0,-100.00,ESE,114,0.0,4.0,95,0.00,,,-99.99,0.000000,,2013-02-05 15:21:00,
2013-02-05 07:32:00,32.0,31.0,-100.00,ESE,114,0.0,4.0,95,0.00,,,-99.99,0.000000,,2013-02-05 15:32:00,
2013-02-05 07:41:00,32.0,31.0,-100.00,ESE,114,0.0,4.0,95,0.00,,,-99.99,0.000000,,2013-02-05 15:41:00,
2013-02-05 08:11:00,32.0,31.0,-100.00,ENE,77,1.0,6.0,95,0.00,,,0.00,0.000000,,2013-02-05 16:11:00,
2013-02-05 08:22:00,32.0,31.0,-100.00,ENE,77,1.0,6.0,95,0.00,,,0.00,0.000000,,2013-02-05 16:22:00,
2013-02-05 08:32:00,32.0,31.0,-100.00,ENE,77,1.0,6.0,95,0.00,,,0.00,0.000000,,2013-02-05 16:32:00,
2013-02-05 08:41:00,32.0,31.0,-100.00,ENE,77,1.0,6.0,95,0.00,,,0.00,0.000000,,2013-02-05 16:41:00,
2013-02-05 09:11:00,33.0,31.0,-100.00,East,85,0.0,4.0,94,0.00,,,-99.99,10.000000,,2013-02-05 17:11:00,
2013-02-05 09:21:00,33.0,31.0,-100.00,East,85,0.0,4.0,94,0.00,,,-99.99,10.000000,,2013-02-05 17:21:00,
2013-02-05 09:32:00,33.0,31.0,-100.00,East,85,0.0,4.0,94,0.00,,,-99.99,10.000000,,2013-02-05 17:32:00,
2013-02-05 09:41:00,33.0,31.0,-100.00,East,85,0.0,4.0,94,0.00,,,-99.99,10.000000,,2013-02-05 17:41:00,
2013-02-05 10:11:00,34.0,32.0,-100.00,South,186,1.0,5.0,94,0.00,,,0.00,51.000000,,2013-02-05 18:11:00,
2013-02-05 10:21:00,34.0,32.0,-100.00,South,186,1.0,5.0,94,0.00,,,0.00,51.000000,,2013-02-05 18:21:00,
2013-02-05 10:32:00,34.0,32.0,-100.00,South,186,1.0,5.0,94,0.00,,,0.00,51.000000,,2013-02-05 18:32:00,
2013-02-05 10:42:00,34.0,32.0,-100.00,South,186,1.0,5.0,94,0.00,,,0.00,51.000000,,2013-02-05 18:42:00,
2013-02-05 11:11:00,34.0,33.0,-100.00,SSE,157,2.0,6.0,95,0.00,,,0.00,91.000000,,2013-02-05 19:11:00,
2013-02-05 11:21:00,34.0,33.0,-100.00,SSE,157,2.0,6.0,95,0.00,,,0.00,91.000000,,2013-02-05 19:21:00,
2013-02-05 11:31:00,34.0,33.0,-100.00,SSE,157,2.0,6.0,95,0.00,,,0.00,91.000000,,2013-02-05 19:31:00,
2013-02-05 11:42:00,34.0,33.0,-100.00,SSE,157,2.0,6.0,95,0.00,,,0.00,91.000000,,2013-02-05 19:42:00,
2013-02-05 12:11:00,37.0,36.0,-100.00,SSW,211,0.0,3.0,95,0.00,,,0.00,198.000000,,2013-02-05 20:11:00,
2013-02-05 12:21:00,37.0,36.0,-100.00,SSW,211,0.0,3.0,95,0.00,,,0.00,198.000000,,2013-02-05 20:21:00,
2013-02-05 13:11:00,34.0,33.0,-100.00,SSE,151,2.0,8.0,96,0.00,,,0.00,286.000000,,2013-02-05 21:11:00,
2013-02-05 13:21:00,34.0,33.0,-100.00,SSE,151,2.0,8.0,96,0.00,,,0.00,286.000000,,2013-02-05 21:21:00,
2013-02-05 13:32:00,34.0,33.0,-100.00,SSE,151,2.0,8.0,96,0.00,,,0.00,286.000000,,2013-02-05 21:32:00,
2013-02-05 13:41:00,34.0,33.0,-100.00,SSE,151,2.0,8.0,96,0.00,,,0.00,286.000000,,2013-02-05 21:41:00,
2013-02-05 14:11:00,38.0,36.0,-100.00,NW,318,1.0,6.0,93,0.00,,,0.00,303.000000,,2013-02-05 22:11:00,
2013-02-05 14:21:00,38.0,36.0,-100.00,NW,318,1.0,6.0,93,0.00,,,0.00,303.000000,,2013-02-05 22:21:00,
2013-02-05 14:31:00,38.0,36.0,-100.00,NW,318,1.0,6.0,93,0.00,,,0.00,303.000000,,2013-02-05 22:31:00,
2013-02-05 14:41:00,38.0,36.0,-100.00,NW,318,1.0,6.0,93,0.00,,,0.00,303.000000,,2013-02-05 22:41:00,
2013-02-05 15:11:00,33.0,32.0,-100.00,ESE,115,4.0,9.0,97,0.00,,,0.00,275.000000,,2013-02-05 23:11:00,
2013-02-05 15:21:00,33.0,32.0,-100.00,ESE,115,4.0,9.0,97,0.00,,,0.00,275.000000,,2013-02-05 23:21:00,
2013-02-05 15:32:00,33.0,32.0,-100.00,ESE,115,4.0,9.0,97,0.00,,,0.00,275.000000,,2013-02-05 23:32:00,
2013-02-05 15:41:00,33.0,32.0,-100.00,ESE,115,4.0,9.0,97,0.00,,,0.00,275.000000,,2013-02-05 23:41:00,
2013-02-05 16:11:00,37.0,36.0,-100.00,South,170,7.0,10.0,96,0.00,,,0.00,145.000000,,2013-02-06 00:11:00,
2013-02-05 16:21:00,37.0,36.0,-100.00,South,170,7.0,10.0,96,0.00,,,0.00,145.000000,,2013-02-06 00:21:00,
2013-02-05 16:32:00,37.0,36.0,-100.00,South,170,7.0,10.0,96,0.00,,,0.00,145.000000,,2013-02-06 00:32:00,
2013-02-05 16:42:00,37.0,36.0,-100.00,South,170,7.0,10.0,96,0.00,,,0.00,145.000000,,2013-02-06 00:42:00,
2013-02-05 17:11:00,34.0,32.0,-100.00,SSE,155,7.0,12.0,91,0.00,,,0.00,47.000000,,2013-02-06 01:11:00,
2013-02-05 17:21:00,34.0,32.0,-100.00,SSE,155,7.0,12.0,91,0.00,,,0.00,47.000000,,2013-02-06 01:21:00,
2013-02-05 17:32:00,34.0,32.0,-100.00,SSE,155,7.0,12.0,91,0.00,,,0.00,47.000000,,2013-02-06 01:32:00,
2013-02-05 17:41:00,34.0,32.0,-100.00,SSE,155,7.0,12.0,91,0.00,,,0.00,47.000000,,2013-02-06 01:41:00,
2013-02-05 18:11:00,32.0,30.0,-100.00,ESE,113,0.0,10.0,93,0.00,,,0.00,0.000000,,2013-02-06 02:11:00,
2013-02-05 18:21:00,32.0,30.0,-100.00,ESE,113,0.0,10.0,93,0.00,,,0.00,0.000000,,2013-02-06 02:21:00,
2013-02-05 18:32:00,32.0,30.0,-100.00,ESE,113,0.0,10.0,93,0.00,,,0.00,0.000000,,2013-02-06 02:32:00,
2013-02-05 18:41:00,32.0,30.0,-100.00,ESE,113,0.0,10.0,93,0.00,,,0.00,0.000000,,2013-02-06 02:41:00,
2013-02-05 19:12:00,33.0,29.0,-100.00,SSW,206,4.0,6.0,85,0.00,,,0.00,0.000000,,2013-02-06 03:12:00,
2013-02-05 19:21:00,33.0,29.0,-100.00,SSW,206,4.0,6.0,85,0.00,,,0.00,0.000000,,2013-02-06 03:21:00,
2013-02-05 19:32:00,33.0,29.0,-100.00,SSW,206,4.0,6.0,85,0.00,,,0.00,0.000000,,2013-02-06 03:32:00,
2013-02-05 19:42:00,33.0,29.0,-100.00,SSW,206,4.0,6.0,85,0.00,,,0.00,0.000000,,2013-02-06 03:42:00,
2013-02-05 20:11:00,33.0,29.0,-100.00,South,170,8.0,12.0,85,0.00,,,0.00,0.000000,,2013-02-06 04:11:00,
2013-02-05 20:21:00,33.0,29.0,-100.00,South,170,8.0,12.0,85,0.00,,,0.00,0.000000,,2013-02-06 04:21:00,
2013-02-05 20:31:00,33.0,29.0,-100.00,South,170,8.0,12.0,85,0.00,,,0.00,0.000000,,2013-02-06 04:31:00,
2013-02-05 20:41:00,33.0,29.0,-100.00,South,170,8.0,12.0,85,0.00,,,0.00,0.000000,,2013-02-06 04:41:00,
2013-02-05 21:12:00,32.0,29.0,-100.00,WSW,240,10.0,13.0,88,0.00,,,0.00,0.000000,,2013-02-06 05:12:00,
2013-02-05 21:22:00,32.0,29.0,-100.00,WSW,240,10.0,13.0,88,0.00,,,0.00,0.000000,,2013-02-06 05:22:00,
2013-02-05 21:31:00,32.0,29.0,-100.00,WSW,240,10.0,13.0,88,0.00,,,0.00,0.000000,,2013-02-06 05:31:00,
2013-02-05 21:41:00,32.0,29.0,-100.00,WSW,240,10.0,13.0,88,0.00,,,0.00,0.000000,,2013-02-06 05:41:00,
2013-02-05 22:11:00,32.0,29.0,-100.00,SSW,209,10.0,12.0,89,0.00,,,0.00,0.000000,,2013-02-06 06:11:00,
2013-02-05 22:21:00,32.0,29.0,-100.00,SSW,209,10.0,12.0,89,0.00,,,0.00,0.000000,,2013-02-06 06:21:00,
2013-02-05 22:31:00,32.0,29.0,-100.00,SSW,209,10.0,12.0,89,0.00,,,0.00,0.000000,,2013-02-06 06:31:00,
2013-02-05 22:41:00,32.0,29.0,-100.00,SSW,209,10.0,12.0,89,0.00,,,0.00,0.000000,,2013-02-06 06:41:00,
2013-02-05 23:11:00,34.0,28.0,-100.00,SSW,209,10.0,15.0,80,0.00,,,0.00,0.000000,,2013-02-06 07:11:00,
2013-02-05 23:21:00,34.0,28.0,-100.00,SSW,209,10.0,15.0,80,0.00,,,0.00,0.000000,,2013-02-06 07:21:00,
2013-02-05 23:32:00,34.0,28.0,-100.00,SSW,209,10.0,15.0,80,0.00,,,0.00,0.000000,,2013-02-06 07:32:00,
2013-02-05 23:41:00,34.0,28.0,-100.00,SSW,209,10.0,15.0,80,0.00,,,0.00,0.000000,,2013-02-06 07:41:00,